Las Vegas, NV

12:31 AM PDT on October 19, 2017 (GMT -0700)
McCarran International

Weather History for KLAS - February, 2012

Change the Weather History Date:

Sunday, February 26, 2012

  Actual Average Record
Temperature  
Mean Temperature 54 °F 56 °F  
Max Temperature 60 °F 65 °F 87 °F (1986)
Min Temperature 47 °F 46 °F 28 °F (1971)
Degree Days  
Heating Degree Days 11 10  
Month to date heating degree days 280 321  
Since 1 July heating degree days 1625 1673  
Cooling Degree Days 0 0  
Month to date cooling degree days 0 0  
Year to date cooling degree days 0 0  
Growing Degree Days 3 (Base 50)    
Moisture  
Dew Point 4 °F    
Average Humidity 14    
Maximum Humidity 19    
Minimum Humidity 9    
Precipitation  
Precipitation 0.00 in 0.03 in 0.57 in (2001)
Month to date precipitation 0.06 0.71  
Year to date precipitation 0.06 1.25  
Snow  
Snow 0.00 in 0.00 in T in (1996)
Month to date snowfall 0.0 0.1  
Since 1 July snowfall 0.0 0.3  
Snow Depth 0.00 in    
Sea Level Pressure  
Sea Level Pressure 29.90 in    
Wind  
Wind Speed 8 mph (ESE)    
Max Wind Speed 17 mph    
Max Gust Speed 28 mph    
Visibility 10 miles    
Events      
T = Trace of Precipitation, MM = Missing Value Source: NWS Daily Summary

Daily Weather History Graph

Daily Weather History Graph

Search for Another Location

Airport or City:

Trip Planner

Search our weather history database for the weather conditions in past years. The results will help you decide how hot, cold, wet, or windy it might be!

Date:

Astronomy

Feb. 26, 2012 Rise Set
Actual Time 6:15 AM PST 5:32 PM PST
Civil Twilight 5:49 AM PST 5:58 PM PST
Nautical Twilight 5:19 AM PST 6:27 PM PST
Astronomical Twilight 4:49 AM PST 6:57 PM PST
Moon 8:23 AM PST (2/26) 10:22 PM PST (2/26)
Length of Visible Light 12h 08m
Length of Day
11h 17m
Waxing Crescent, 21% of the Moon is Illuminated
Feb 26
Waxing Crescent
Feb 29
First Quarter
Mar 8
Full
Mar 14
Last Quarter
Mar 22
New

Hourly Weather History & Observations

Time (PST) Temp. Dew Point Humidity Pressure Visibility Wind Dir Wind Speed Gust Speed Precip Events Conditions
12:56 AM 57.0 °F 3.0 °F 11% 29.91 in 10.0 mi North 11.5 mph - N/A   Clear
1:56 AM 54.0 °F 1.9 °F 12% 29.92 in 10.0 mi NE 8.1 mph - N/A   Clear
2:56 AM 53.1 °F 1.0 °F 12% 29.92 in 10.0 mi NE 8.1 mph - N/A   Scattered Clouds
3:56 AM 51.8 °F -0.4 °F 12% 29.97 in 10.0 mi NE 10.4 mph - N/A   Scattered Clouds
4:56 AM 50.0 °F 1.4 °F 14% 29.99 in 10.0 mi ENE 15.0 mph - N/A   Scattered Clouds
5:56 AM 48.9 °F 5.0 °F 17% 29.99 in 10.0 mi ENE 12.7 mph 21.9 mph N/A   Scattered Clouds
6:56 AM 48.2 °F 8.6 °F 20% 30.03 in 10.0 mi ENE 11.5 mph - N/A   Mostly Cloudy
7:56 AM 50.0 °F 9.0 °F 19% 30.04 in 10.0 mi ENE 13.8 mph - N/A   Mostly Cloudy
8:56 AM 51.8 °F 8.6 °F 18% 30.06 in 10.0 mi ENE 8.1 mph - N/A   Mostly Cloudy
9:56 AM 54.0 °F 9.0 °F 17% 30.02 in 10.0 mi ENE 10.4 mph 16.1 mph N/A   Partly Cloudy
10:56 AM 55.0 °F 9.0 °F 16% 30.00 in 10.0 mi East 10.4 mph 17.3 mph N/A   Partly Cloudy
11:56 AM 55.9 °F 8.1 °F 15% 29.96 in 10.0 mi East 6.9 mph - N/A   Partly Cloudy
12:56 PM 57.9 °F 6.1 °F 13% 29.91 in 10.0 mi Calm Calm - N/A   Clear
1:56 PM 59.0 °F 8.1 °F 13% 29.89 in 10.0 mi Variable 3.5 mph - N/A   Clear
2:56 PM 59.0 °F 8.1 °F 13% 29.87 in 10.0 mi Variable 3.5 mph - N/A   Clear
3:56 PM 60.1 °F -2.2 °F 8% 29.84 in 10.0 mi Calm Calm - N/A   Clear
4:56 PM 59.0 °F -0.8 °F 9% 29.82 in 10.0 mi SSE 3.5 mph - N/A   Partly Cloudy
5:56 PM 57.4 °F -0.9 °F 9% 29.81 in 10.0 mi South 5.8 mph - N/A   Partly Cloudy
6:56 PM 55.9 °F -0.2 °F 10% 29.81 in 10.0 mi South 5.8 mph - N/A   Partly Cloudy
7:56 PM 53.2 °F -0.0 °F 11% 29.80 in 10.0 mi South 8.1 mph - N/A   Partly Cloudy
8:56 PM 50.0 °F 1.0 °F 13% 29.81 in 10.0 mi SW 6.9 mph - N/A   Partly Cloudy
9:56 PM 48.9 °F -0.8 °F 13% 29.78 in 10.0 mi SSW 8.1 mph - N/A   Partly Cloudy
10:56 PM 46.9 °F 1.9 °F 16% 29.76 in 10.0 mi SSW 8.1 mph - N/A   Mostly Cloudy
11:56 PM 46.9 °F 1.9 °F 16% 29.75 in 10.0 mi South 5.8 mph - N/A   Mostly Cloudy